This demonstration page uses our WeatherBlox Daily Observations layout. Learn more.

Left ArrowRight Arrow

39.08367, -84.50855

Hourly Observations for September 28, 2017

Temp ( °F °C ) Dew Point ( °F °C ) Humidity (%) Winds ( mph kmh ) Pressure ( in mb ) Visibility ( mi km ) Precip ( " mm )
12:53 am 00:53 Clear 67 19.4 55 12.8 66 66 N 8 13 30.04 1017 10 16 N/A
1:53 am 01:53 Clear 64 17.8 54 12.2 70 70 N 9 15 30.04 1017 10 16 N/A
2:53 am 02:53 Clear 62 16.7 53 11.7 73 73 N 10 17 30.06 1018 10 16 N/A
3:53 am 03:53 Clear 60 15.6 52 11.1 75 75 N 7 11 30.05 1018 10 16 N/A
4:53 am 04:53 Clear 59 15 52 11.1 78 78 N 6 9 30.07 1018 10 16 N/A
5:53 am 05:53 Clear 58 14.4 52 11.1 81 81 N 6 9 30.08 1019 10 16 N/A
6:53 am 06:53 Mostly Clear 57 13.9 51 10.6 81 81 N 6 9 30.10 1019 10 16 N/A
7:53 am 07:53 Mostly Sunny 57 13.9 51 10.6 81 81 N 7 11 30.11 1020 10 16 N/A
8:53 am 08:53 Mostly Sunny 60 15.6 52 11.1 75 75 NNE 6 9 30.12 1020 10 16 N/A
9:53 am 09:53 Sunny 63 17.2 53 11.7 70 70 NE 13 20 30.12 1020 10 16 N/A
10:53 am 10:53 Mostly Sunny 67 19.4 55 12.8 66 66 ENE 7 11 30.12 1020 10 16 N/A
11:53 am 11:53 Mostly Sunny 70 21.1 56 13.3 61 61 NNE 8 13 30.12 1020 10 16 N/A
12:53 pm 12:53 Mostly Sunny 71 21.7 56 13.3 59 59 NNW 9 15 30.11 1020 10 16 N/A
1:53 pm 13:53 Mostly Cloudy 71 21.7 55 12.8 57 57 N 9 15 30.10 1019 10 16 N/A
2:53 pm 14:53 Mostly Cloudy 73 22.8 54 12.2 51 51 N 12 19 30.08 1019 10 16 N/A
3:53 pm 15:53 Mostly Sunny 74 23.3 52 11.1 46 46 VRB 3 6 30.07 1018 10 16 N/A
4:53 pm 16:53 Mostly Sunny 76 24.4 51 10.6 42 42 N 9 15 30.07 1018 10 16 N/A
5:53 pm 17:53 Sunny 74 23.3 50 10 43 43 NNE 8 13 30.07 1018 10 16 N/A
6:53 pm 18:53 Sunny 71 21.7 49 9.4 46 46 N 6 9 30.07 1018 10 16 N/A
7:53 pm 19:53 Clear 64 17.8 53 11.7 68 68 ENE 3 6 30.08 1019 10 16 N/A
8:53 pm 20:53 Clear 59 15 54 12.2 83 83 N N/A 30.09 1019 10 16 N/A
9:53 pm 21:53 Clear 57 13.9 53 11.7 87 87 N N/A 30.11 1020 10 16 N/A
10:53 pm 22:53 Clear 53 11.7 52 11.1 96 96 N N/A 30.13 1020 10 16 N/A
11:53 pm 23:53 Clear 53 11.7 51 10.6 93 93 N N/A 30.13 1020 10 16 N/A

Powered by AerisWeather